Location: Eaton Estates
(41.3089°N, 82.0057°W)
Time: 15:55:31
(UTC+00:00)

Cosmos 1953 - Pass Details

Date: 17 June 2021
Orbit: 537 x 557 km, 82.5° (Epoch: 02 August)

Event Time Altitude Azimuth Distance (km) Brightness Sun altitude
Rises 01:54:32 0° 9° (N) 2,751 6.4 -8.5°
Reaches altitude 10° 01:57:21 10° 29° (NNE) 1,850 5.2 -8.9°
Maximum altitude 02:00:06 17° 72° (ENE) 1,432 4.2 -9.2°
Enters shadow 02:02:33 11° 111° (ESE) 1,765 4.3 -9.6°
